AirNav   Air Wisconsin pilot careers
 
 879 users online  

8D9 Howard Municipal Airport
Howard, South Dakota, USA

GOING TO HOWARD?


FAA INFORMATION EFFECTIVE 16 AUGUST 2018

Location

FAA Identifier: 8D9
Lat/Long: 44-01-44.9060N / 097-32-16.2520W
44-01.748433N / 097-32.270867W
44.0291406 / -97.5378478
(estimated)
Elevation: 1582 ft. / 482.2 m (surveyed)
Variation: 07E (1985)
From city: 1 mile N of HOWARD, SD
Time zone: UTC -5 (UTC -6 during Standard Time)
Zip code: 57349

Airport Operations

Airport use: Open to the public
Activation date: 09/1947
Control tower: no
ARTCC: MINNEAPOLIS CENTER
FSS: HURON FLIGHT SERVICE STATION
NOTAMs facility: HON (NOTAM-D service available)
Attendance: UNATNDD
Wind indicator: lighted
Segmented circle: no
Lights: ACTVT LIRL RY 13/31 - CTAF.
Beacon: white-green (lighted land airport)
Operates sunset to sunrise.

Airport Communications

CTAF: 122.9
WX AWOS-3 at MDS (20 nm E): 118.35 (6054279380)

Nearby radio navigation aids

VOR radial/distance  VOR name  Freq  Var
MHEr051/26.4MITCHELL VOR/DME109.2004E
FSDr296/39.9SIOUX FALLS VORTAC115.0009E

Airport Services

Parking: tiedowns
Airframe service: NONE
Powerplant service: NONE
Bottled oxygen: NONE
Bulk oxygen: NONE

Runway Information

Runway 13/31

Dimensions: 2672 x 150 ft. / 814 x 46 m
Surface: turf, in fair condition
Runway edge lights: low intensity
Gradient: SE
RUNWAY 13  RUNWAY 31
Latitude: 44-02.173000N44-01.837667N
Longitude: 097-32.296000W097-31.902167W
Elevation: 1563.0 ft.1582.0 ft.
Gradient: 0.7% UP
Traffic pattern: leftleft
Obstructions: 14 ft. road, 300 ft. from runway, 21:1 slope to clearnone

Runway 18/36

Dimensions: 1932 x 150 ft. / 589 x 46 m
Surface: turf, in fair condition
Runway edge markings: RWY 18 /36 MKD WITH NEW WHITE/BLACK MARKER CONES.
RUNWAY 18  RUNWAY 36
Latitude: 44-02.148500N44-01.794833N
Longitude: 097-31.887500W097-31.938000W
Elevation: 1583.0 ft.1581.0 ft.
Traffic pattern: leftleft
Obstructions: 28 ft. pline, 737 ft. from runway, 26:1 slope to clear4 ft. fence, 80 ft. from runway, 20:1 slope to clear

Airport Ownership and Management from official FAA records

Ownership: Publicly-owned
Owner: CITY OF HOWARD
PO BOX 705
HOWARD, SD 57349
Phone 605-772-4391
Manager: TIM CLARKE
PO BOX 145
HOWARD, SD 57349
Phone 605-940-9217

Airport Operational Statistics

Aircraft based on the field: 6
Single engine airplanes: 6
    
Aircraft operations: avg 60/month *
92% local general aviation
8% transient general aviation
* for 12-month period ending 01 July 2015

Additional Remarks

RY 13 - 4+ FT FENCE 45 FT R 300 FT FM THR & 125 FT R 240 FT FM THR.
WILDLIFE ON AND INVOF ARPT.
RUNWAYS CLOSED DURING WINTER MONTHS.

Instrument Procedures

There are no published instrument procedures at 8D9.

Some nearby airports with instrument procedures:

KMDS - Madison Municipal Airport (20 nm E)
KMHE - Mitchell Municipal Airport (26 nm SW)
KBKX - Brookings Regional Airport (35 nm NE)
KHON - Huron Regional Airport (37 nm NW)
4X4 - Wessington Springs Airport (43 nm W)
 
Loc | Ops | Rwys | IFR | FBO | Links
Com | Nav | Svcs | Stats | Notes

Mandan Aero Center
 
Area around 8D9 (Howard Municipal Airport)
 
Road maps at: MapQuest Bing Google
 
Aerial photo
WARNING: Photo may not be current or correct
Aerial photo of 8D9 (Howard Municipal Airport)
Photo by Steve Hamilton

Do you have a better or more recent aerial photo of Howard Municipal Airport that you would like to share? If so, please send us your photo.

 
Sectional chart

 
Airport distance calculator
Flying to Howard Municipal Airport? Find the distance to fly.

From to 8D9

Sunrise and sunset
Times for 18-Aug-2018
 Local
(UTC-5)
 Zulu
(UTC)
Morning civil twilight06:0711:07
Sunrise06:3811:38
Sunset20:3001:30
Evening civil twilight21:0102:01

Current date and time
Zulu (UTC)  19-Aug-2018 01:14:20
Local (UTC-5)  18-Aug-2018 20:14:20
 
METAR
KMDS 
20nm E 
190055Z AUTO 14007KT 10SM CLR 22/22 A2995 RMK AO2
6E5 
24nm N 
SuperAWOS
190055Z AUTO 10SM 24/19 A3000
KMHE 
26nm SW 
190053Z AUTO 14009KT 10SM CLR 27/20 A2990 RMK AO2 SLP117 T02720200
KBKX 
35nm NE 
190056Z AUTO 13009KT 10SM CLR 22/18 A2995 RMK AO2 SLP152 T02170183 TSNO
KHON 
37nm NW 
190055Z AUTO 15010G18KT 10SM CLR 27/19 A2987 RMK AO2 SLP108 T02670194
TAF
KHON 
37nm NW 
181722Z 1818/1918 16012G17KT P6SM FEW200 FM190300 14009KT P6SM BKN250 FM190600 16008KT 6SM SHRA OVC110 TEMPO 1906/1909 -TSRA BKN080CB FM191700 05005KT 6SM SHRA OVC050
KFSD 
43nm SE 
181722Z 1818/1918 15008KT P6SM FEW040 FEW200 FM182100 15010KT P6SM SCT040 FM190100 14006KT P6SM FEW250 FM190900 14005KT 6SM SHRA BKN050 BKN150 TEMPO 1909/1912 6SM -TSRA BKN050CB
NOTAMs
Click for the latest NOTAMs
NOTAMs are issued by the DoD/FAA and will open in a separate window not controlled by AirNav.

 

 
 

Would you like to see your business listed on this page?

 If your business provides an interesting product or service to pilots, flight crews, aircraft, or users of the Howard Municipal Airport, you should consider listing it here.  To start the listing process, click on the button below
 
Add a business
 

Other Pages about Howard Municipal Airport

Update a link
 
Copyright © AirNav, LLC. All rights reserved. Privacy Policy  Contact